Location: Camp Crooked Creek
(37.9149°N, 85.6607°W)
Time: 17:12:53
(UTC-05:00)

Lacrosse 4 - Visible Passes

Search period start: 18 January 2017 00:00
Search period end: 28 January 2017 00:00
Orbit: 673 x 680 km, 68.0° (Epoch: 25 February)

Date Brightness Start Highest point End Pass type
(mag) Time Alt. Az. Time Alt. Az. Time Alt. Az.
18 Jan 4.6 04:41:12 12° SE 04:42:57 14° ESE 04:45:25 10° ENE visible
18 Jan 1.7 06:19:42 18° SW 06:23:09 57° WNW 06:27:52 10° NNE visible
19 Jan 2.8 05:17:55 43° E 05:17:55 43° E 05:22:07 10° NE visible
19 Jan 3.0 06:56:19 16° W 06:58:31 21° NW 07:02:07 10° N visible
20 Jan 2.2 05:53:42 46° N 05:53:42 46° N 05:57:19 10° NNE visible
21 Jan 4.3 04:50:39 15° NE 04:50:39 15° NE 04:51:32 10° NE visible
21 Jan 3.2 06:28:59 20° NW 06:28:59 20° NW 06:31:36 10° N visible
22 Jan 3.9 05:25:40 17° NNE 05:25:40 17° NNE 05:26:44 10° NNE visible
23 Jan 4.0 06:00:30 12° N 06:00:30 12° N 06:01:04 10° N visible
